Location: Pouilly
(47.2624°N, 4.5558°E)
Time: 01:10:51
(UTC+00:00)

Cosmos 2263 Rocket - Pass Details

Date: 07 June 2020
Orbit: 825 x 847 km, 71.0° (Epoch: 11 July)

Event Time Altitude Azimuth Distance (km) Brightness Sun altitude
Rises 02:47:14 0° 318° (NW) 3,385 5.4 -8.3°
Reaches altitude 10° 02:50:36 10° 298° (WNW) 2,441 4.5 -8.0°
Maximum altitude 02:53:51 16° 262° (W) 2,042 3.8 -7.6°
Drops below altitude 10° 02:57:05 10° 226° (SW) 2,425 3.9 -7.2°
Enters shadow 02:57:36 - 222° (SW) 2,544 4.0 -7.1°
